Simultaneous Nadir Overpasses (SNOs) Predictions

Prediction of SNOs between AQUA and NPP Satellite Orbit:

Table of predicted SNOs for the next 14.0 days since TLE Epoch: 4/6/2019
Index Date (AQUA) Time (AQUA) Lat,Lon (AQUA) SZA (AQUA ) Date (NPP) Time (NPP) Lat,Lon (NPP) SZA (NPP ) Distance(km) Time Diff (sec)
1 04/07/2019 06:22:19 75.52, -37.86 91.26 04/07/2019 06:21:19 75.52, -37.85 91.31 0.35 60
2 04/07/2019 07:11:24 -76.61, 133.17 90.02 04/07/2019 07:11:41 -76.62, 133.23 90.05 1.53 17
3 04/09/2019 22:38:40 75.90, 79.12 89.81 04/09/2019 22:38:04 75.90, 79.15 89.83 0.99 36
4 04/09/2019 23:27:52 -76.64,-110.85 91.07 04/09/2019 23:28:34 -76.62,-110.96 91.08 2.92 42
5 04/12/2019 14:55:00 76.31,-163.71 88.33 04/12/2019 14:54:48 76.32,-163.62 88.32 2.29 12
6 04/12/2019 15:44:13 -76.99, 6.28 92.48 04/12/2019 15:45:19 -76.98, 6.25 92.53 0.82 66
7 04/15/2019 06:22:19 -75.45, 141.94 91.66 04/15/2019 06:21:15 -75.46, 141.97 91.61 1.02 64
8 04/15/2019 07:11:27 76.33, -47.77 87.33 04/15/2019 07:11:40 76.32, -47.83 87.34 1.75 13
9 04/17/2019 22:38:44 -75.61,-101.73 92.79 04/17/2019 22:38:05 -75.60,-101.79 92.74 2.06 39




NCC Satellite Simultaneous Nadir Overpasses (SNOs) Prediction Service
